Faro, Portugal

10:39 PM WET on November 19, 2019 (GMT +0000)
Faro

Weather History for LPFR - September, 2019

Change the Weather History Date:

Monday, September 9, 2019

  Actual Average Record
Temperature  
Mean Temperature 75 °F -  
Max Temperature 82 °F 75 °F 89 °F (2011)
Min Temperature 68 °F 62 °F 61 °F (2018)
Cooling Degree Days 10    
Growing Degree Days 25 (Base 50)    
Moisture  
Dew Point 61 °F    
Average Humidity 60    
Maximum Humidity 78    
Minimum Humidity 16    
Precipitation  
Precipitation 0.00 in 0.04 in - ()
Sea Level Pressure  
Sea Level Pressure 30.05 in    
Wind  
Wind Speed 6 mph ()    
Max Wind Speed 18 mph    
Max Gust Speed -    
Visibility 8.3 miles    
Events      
Averages and records for this station are not official NWS values.
T = Trace of Precipitation, MM = Missing Value Source: Averaged Metar Reports

Daily Weather History Graph

Daily Weather History Graph

Search for Another Location

Airport or City:

Astronomy

Sep. 09, 2019 Rise Set
Actual Time 7:08 AM WEST 7:49 PM WEST
Civil Twilight 6:42 AM WEST 8:15 PM WEST
Nautical Twilight 6:11 AM WEST 8:46 PM WEST
Astronomical Twilight 5:39 AM WEST 9:17 PM WEST
Moon 5:28 PM WEST (9/9) 2:34 AM WEST (9/9)
Length of Visible Light 13h 32m
Length of Day
12h 40m
Waxing Gibbous, 81% of the Moon is Illuminated
Sep 9
Waxing Gibbous
Sep 14
Full
Sep 22
Last Quarter
Sep 28
New
Oct 5
First Quarter

Hourly Weather History & Observations

Time (WEST) Temp. Heat Index Dew Point Humidity Pressure Visibility Wind Dir Wind Speed Gust Speed Precip Events Conditions
12:00 AM 75 °F - 63 °F 59% 30.09 in - NE 4.5 mph - -  
12:00 AM 75.2 °F - 62.6 °F 65% 30.06 in - NNE 5.8 mph - N/A   Clear
12:30 AM 75.2 °F - 62.6 °F 65% 30.06 in - North 4.6 mph - N/A   Clear
1:00 AM 74 °F - 62 °F 59% 30.08 in 12 mi NNE 2.2 mph - -   Clear
1:00 AM 73.4 °F - 62.6 °F 69% 30.06 in - NNE 5.8 mph - N/A   Clear
1:30 AM 73.4 °F - 62.6 °F 69% 30.06 in - North 4.6 mph - N/A   Clear
2:00 AM 73 °F - 62 °F 59% 30.07 in - North 2.2 mph - -  
2:00 AM 71.6 °F - 60.8 °F 69% 30.04 in - NNE 6.9 mph - N/A   Clear
2:30 AM 73.4 °F - 62.6 °F 69% 30.04 in - North 5.8 mph - N/A   Clear
3:00 AM 72 °F - 62 °F 62% 30.06 in - Calm Calm - -  
3:00 AM 71.6 °F - 60.8 °F 69% 30.04 in - North 3.5 mph - N/A   Clear
3:30 AM 69.8 °F - 60.8 °F 73% 30.04 in - North 3.5 mph - N/A   Clear
4:00 AM 71 °F - 61 °F 62% 30.06 in 12 mi North 2.2 mph - -   Clear
4:00 AM 69.8 °F - 60.8 °F 73% 30.04 in - North 3.5 mph - N/A   Clear
4:30 AM 68.0 °F - 60.8 °F 78% 30.04 in - NNE 3.5 mph - N/A   Clear
5:00 AM 69.8 °F - 60.8 °F 73% 30.01 in - Calm Calm - N/A   Clear
5:30 AM 69.8 °F - 60.8 °F 73% 30.01 in - Calm Calm - N/A   Clear
6:00 AM 71 °F - 61 °F 63% 30.05 in - North 2.2 mph - -  
6:00 AM 69.8 °F - 62.6 °F 78% 30.04 in - NNE 4.6 mph - N/A   Clear
7:00 AM 70 °F - 61 °F 65% 30.06 in 12 mi North 2.2 mph - -   Clear
7:00 AM 69.8 °F - 60.8 °F 73% 30.04 in - North 3.5 mph - N/A   Clear
7:30 AM 68.0 °F - 60.8 °F 78% 30.04 in - North 5.8 mph - N/A   Clear
8:00 AM 71 °F - 60 °F 60% 30.08 in - North 2.2 mph - -  
8:00 AM 71.6 °F - 60.8 °F 69% 30.04 in - NE 4.6 mph - N/A   Clear
8:30 AM 71.6 °F - 62.6 °F 73% 30.06 in - SSE 3.5 mph - N/A   Clear
9:00 AM 75.2 °F - 66.2 °F 73% 30.06 in - SSE 3.5 mph - N/A   Clear
9:30 AM 75.2 °F - 68.0 °F 78% 30.06 in - South 4.6 mph - N/A   Clear
10:00 AM 77 °F - 68 °F 66% 30.10 in 12 mi North 4.5 mph - -   Clear
10:00 AM 77.0 °F - 66.2 °F 69% 30.06 in - SSW 4.6 mph - N/A   Clear
10:30 AM 77.0 °F - 68.0 °F 74% 30.06 in - SSW 5.8 mph - N/A   Clear
11:00 AM 78 °F - 65 °F 56% 30.11 in - SW 6.7 mph - -  
11:00 AM 77.0 °F - 68.0 °F 74% 30.09 in - SSW 6.9 mph - N/A   Clear
11:30 AM 78.8 °F - 66.2 °F 65% 30.09 in - SW 6.9 mph - N/A   Clear
12:00 PM 78.8 °F - 64.4 °F 61% 30.06 in - SW 8.1 mph - N/A   Clear
12:30 PM 78.8 °F - 66.2 °F 65% 30.06 in 6.2 mi SSW 10.4 mph - N/A   Partly Cloudy
1:00 PM 80 °F - 67 °F 55% 30.09 in 12 mi SW 13.4 mph - -   Scattered Clouds
1:00 PM 78.8 °F - 66.2 °F 65% 30.06 in 6.2 mi SW 12.7 mph - N/A   Partly Cloudy
1:30 PM 78.8 °F - 66.2 °F 65% 30.06 in 6.2 mi SW 13.8 mph - N/A   Partly Cloudy
2:00 PM 82 °F - 66 °F 49% 30.08 in - WSW 13.4 mph - -  
2:00 PM 78.8 °F - 66.2 °F 65% 30.06 in 6.2 mi SW 13.8 mph - N/A   Partly Cloudy
2:30 PM 80.6 °F 82.7 °F 66.2 °F 61% 30.04 in 6.2 mi WSW 15.0 mph - N/A   Partly Cloudy
3:00 PM 78.8 °F - 66.2 °F 65% 30.04 in 6.2 mi WSW 15.0 mph - N/A   Partly Cloudy
3:30 PM 80.6 °F 82.3 °F 64.4 °F 58% 30.04 in 6.2 mi WSW 15.0 mph - N/A   Partly Cloudy
4:00 PM 82 °F - 64 °F 45% 30.05 in 12 mi WSW 15.7 mph - -   Scattered Clouds
4:00 PM 80.6 °F 81.8 °F 62.6 °F 54% 30.04 in 6.2 mi WSW 16.1 mph - N/A   Partly Cloudy
4:30 PM 80.6 °F 82.7 °F 66.2 °F 61% 30.01 in 6.2 mi WSW 16.1 mph - N/A   Partly Cloudy
5:00 PM 80.6 °F 82.3 °F 64.4 °F 58% 30.01 in 6.2 mi WSW 16.1 mph - N/A   Partly Cloudy
6:00 PM 81 °F - 66 °F 50% 30.03 in - West 17.9 mph - -  
6:00 PM 80.6 °F 82.3 °F 64.4 °F 58% 30.01 in 6.2 mi WSW 17.3 mph - N/A   Partly Cloudy
6:30 PM 80.6 °F 81.8 °F 62.6 °F 54% 30.01 in 6.2 mi WSW 18.4 mph - N/A   Partly Cloudy
7:00 PM 80 °F - 63 °F 46% 30.04 in 12 mi West 9.2 mph - -   Scattered Clouds
7:00 PM 78.8 °F - 62.6 °F 57% 30.01 in 6.2 mi West 18.4 mph - N/A   Partly Cloudy
7:30 PM 78.8 °F - 64.4 °F 61% 30.01 in 6.2 mi West 13.8 mph - N/A   Partly Cloudy
8:00 PM 80.6 °F - 50.0 °F 34% 30.04 in - NW 16.1 mph - N/A   Clear
8:30 PM 78.8 °F - 48.2 °F 34% 30.04 in - NW 10.4 mph - N/A   Clear
9:00 PM 78.8 °F - 48.2 °F 34% 30.04 in - WNW 9.2 mph - N/A   Clear
9:30 PM 77.0 °F - 46.4 °F 34% 30.06 in - West 8.1 mph - N/A   Clear
10:00 PM 76 °F - 39 °F 16% 30.09 in 12 mi WNW 8.9 mph - -   Clear
10:00 PM 77.0 °F - 39.2 °F 26% 30.06 in - WNW 9.2 mph - N/A   Clear
10:30 PM 75.2 °F - 41.0 °F 29% 30.06 in - WNW 11.5 mph - N/A   Clear
11:00 PM 71.6 °F - 42.8 °F 35% 30.06 in - NW 11.5 mph - N/A   Clear
11:30 PM 71.6 °F - 50.0 °F 46% 30.06 in - NW 12.7 mph - N/A   Clear